[[{"header":{"parameterUnit":"m.s-1","parameterCategory":1,"la1":30.2991,"la2":30.254,"lo1":-89.0895,"lo2":-89.0444,"dy":0.0017,"dx":0.0017,"nx":28,"ny":28,"refTime":"2026-02-11T03:00:00:Z","depth":0,"parameterNumber":2,"parameterNumberName":"U-component_of_WINDS"},"data":[0,0,0,0,0,0,0,0,0,0,0,0,0,0,0,0,0,0,0,0,0,0,0,0,0,0,0,0,0,0,0,0,0,0,0,0,0,0,0,0,0,0,0,0,0,0,0,0,0,0,0,0,0,0,0,0,0,0,-1.5467,-1.5466,0,-1.5421,-1.5421,-1.542,-1.5379,-1.5379,-1.5378,-1.5378,-1.5332,-1.5332,-1.5331,0,0,0,0,0,0,0,0,0,0,0,0,0,-1.5519,-1.5519,-1.5467,-1.5466,-1.5466,-1.5421,-1.5421,-1.542,-1.5379,-1.5378,-1.5378,-1.5377,-1.5333,-1.5332,-1.5331,0,0,0,0,0,0,0,0,0,0,0,0,0,-1.5488,-1.5518,-1.5467,-1.544,-1.5437,-1.5422,-1.5421,-1.542,-1.5379,-1.5378,-1.5378,-1.5377,-1.5333,-1.5332,-1.5331,-1.5339,0,0,-1.5327,-1.5327,0,0,0,0,0,0,0,0,-1.5489,-1.5486,-1.5444,-1.5442,-1.5438,-1.5405,-1.5423,-1.5393,-1.5379,-1.5401,-1.5378,-1.5377,-1.5357,-1.5354,-1.5347,-1.5337,-1.5335,-1.5327,-1.5327,-1.5326,-1.5326,0,0,0,0,0,0,0,-1.5492,-1.5487,-1.5449,-1.5444,-1.544,-1.543,-1.5425,-1.5417,-1.5384,-1.5399,-1.5396,-1.5391,-1.5355,-1.5348,-1.5346,-1.5334,-1.5327,-1.5326,-1.5326,-1.5325,-1.5331,-1.5332,0,0,0,0,0,0,-1.5498,-1.549,-1.545,-1.5447,-1.5462,-1.543,-1.5424,-1.5417,-1.5384,-1.5378,-1.5392,-1.5389,-1.5351,-1.5347,-1.5344,-1.5354,-1.5326,-1.5325,-1.5324,-1.533,-1.5331,-1.5332,0,0,0,0,0,0,-1.5499,-1.5495,-1.5452,-1.5468,-1.5461,-1.543,-1.5422,-1.5416,-1.5409,-1.5378,-1.5373,-1.5391,-1.535,-1.5346,-1.5341,-1.5351,-1.5325,-1.5324,-1.5329,-1.533,-1.5331,-1.5372,0,0,0,0,0,0,-1.5501,-1.5495,-1.5498,-1.5468,-1.5461,-1.5449,-1.5422,-1.5416,-1.5407,-1.5403,-1.5376,-1.537,-1.5349,-1.5343,-1.534,-1.5349,-1.5323,-1.5328,-1.533,-1.5331,-1.5369,-1.5374,-1.5378,0,0,0,0,0,-1.5503,-1.5511,-1.5498,-1.5494,-1.5463,-1.545,-1.5446,-1.5421,-1.5408,-1.5411,-1.5391,-1.5371,-1.535,-1.5343,-1.5339,-1.5348,-1.5327,-1.5329,-1.5331,-1.5367,-1.5373,-1.5378,0,0,0,0,0,0,-1.5542,-1.5506,-1.5492,-1.549,-1.5473,-1.5443,-1.5445,-1.5427,-1.5414,-1.5411,-1.5381,-1.5375,-1.5374,-1.536,-1.5353,-1.5356,-1.5336,-1.5337,-1.5365,-1.5371,-1.5375,-1.5379,-1.5322,0,0,0,0,0,-1.5551,-1.5543,-1.5512,-1.5513,-1.5505,-1.5477,-1.547,-1.5452,-1.5434,-1.5427,-1.5407,-1.5391,-1.538,-1.5374,-1.5363,-1.5367,-1.5361,-1.5371,-1.5376,-1.538,-1.5382,-1.5385,-1.539,-1.5338,-1.5338,-1.5338,0,0,-1.5568,-1.5547,-1.5544,-1.5521,-1.5506,-1.5499,-1.5471,-1.5465,-1.546,-1.5426,-1.5421,-1.5406,-1.5385,-1.5386,-1.5385,-1.5374,-1.5395,-1.5382,-1.5385,-1.5385,-1.5387,-1.5392,-1.5397,-1.5339,-1.5339,-1.5339,0,0,-1.5597,-1.558,-1.558,-1.5566,-1.5544,-1.5525,-1.5525,-1.5498,-1.5487,-1.5481,-1.5456,-1.545,-1.5432,-1.5419,-1.5411,-1.5436,-1.5418,-1.5433,-1.5457,-1.5461,-1.5465,-1.5469,-1.548,-1.5485,-1.5435,-1.5435,-1.5435,0,-1.5622,-1.5611,-1.5583,-1.5579,-1.557,-1.5539,-1.554,-1.5527,-1.5503,-1.5498,-1.5486,-1.5465,-1.5448,-1.5446,-1.5453,-1.5446,-1.5447,-1.5437,-1.5467,-1.547,-1.5473,-1.5484,-1.5488,-1.5437,-1.5437,-1.5437,-1.5436,0,-1.5643,-1.5636,-1.5639,-1.5617,-1.5608,-1.5606,-1.558,-1.5574,-1.5557,-1.554,-1.5536,-1.5515,-1.5501,-1.5498,-1.5481,-1.5494,-1.5489,-1.5472,-1.5452,-1.5481,-1.549,-1.5494,-1.544,-1.5439,-1.5439,-1.5438,0,0,-1.5696,-1.5659,-1.5661,-1.5652,-1.5625,-1.562,-1.5617,-1.5603,-1.56,-1.5584,-1.5583,-1.5569,-1.5554,-1.5544,-1.5525,-1.5528,-1.5553,-1.5512,-1.5511,-1.5522,-1.5569,-1.5584,-1.5589,-1.554,-1.5541,-1.5541,-1.5572,0,-1.5723,-1.5717,-1.5692,-1.5694,-1.5688,-1.5659,-1.5657,-1.5642,-1.5626,-1.5619,-1.5601,-1.5593,-1.5572,-1.5567,-1.5568,-1.555,-1.5563,-1.5547,-1.5541,-1.5541,-1.5549,-1.5594,-1.5609,-1.5639,-1.5575,-1.5576,-1.5576,0,-1.5753,-1.574,-1.5741,-1.5717,-1.5714,-1.5713,-1.5699,-1.5692,-1.5674,-1.5662,-1.5652,-1.5631,-1.5629,-1.5609,-1.5606,-1.5596,-1.5591,-1.5582,-1.5583,-1.5583,-1.5562,-1.5598,-1.5647,-1.5653,-1.5582,-1.5581,-1.5581,0,-1.5795,-1.5777,-1.5777,-1.5769,-1.574,-1.574,-1.5728,-1.5709,-1.5703,-1.5691,-1.5687,-1.5674,-1.5668,-1.5659,-1.5636,-1.5623,-1.5637,-1.5614,-1.5629,-1.563,-1.5635,-1.5635,-1.5687,-1.5628,-1.5628,-1.5628,-1.5628,0,-1.5828,-1.5831,-1.5795,-1.5795,-1.5798,-1.577,-1.5774,-1.5759,-1.5743,-1.574,-1.5713,-1.5711,-1.568,-1.5675,-1.5657,-1.5659,-1.5655,-1.5647,-1.5643,-1.5651,-1.5653,-1.565,-1.5648,-1.5629,-1.5629,-1.5628,-1.5628,0,-1.5876,-1.5852,-1.585,-1.5823,-1.5816,-1.582,-1.5797,-1.5796,-1.5779,-1.5776,-1.5774,-1.5747,-1.5739,-1.5715,-1.5702,-1.569,-1.5699,-1.5688,-1.5705,-1.5703,-1.572,-1.572,-1.5774,-1.578,-1.5715,-1.5715,-1.5716,0,-1.59,-1.5902,-1.5875,-1.5872,-1.5861,-1.5855,-1.5849,-1.5821,-1.5816,-1.5797,-1.5799,-1.579,-1.5781,-1.5772,-1.5751,-1.5742,-1.5733,-1.5752,-1.5731,-1.574,-1.5737,-1.5738,-1.5739,-1.5758,-1.5759,-1.5759,-1.576,0,-1.5946,-1.5935,-1.5926,-1.5915,-1.5908,-1.5898,-1.5885,-1.5884,-1.5854,-1.5849,-1.5842,-1.5836,-1.5823,-1.5815,-1.5802,-1.579,-1.5771,-1.5766,-1.577,-1.578,-1.5791,-1.5788,-1.572,-1.5766,-1.5765,-1.5765,-1.5764,-1.5764,-1.5984,-1.5986,-1.5968,-1.5961,-1.5949,-1.5938,-1.5937,-1.592,-1.5914,-1.5901,-1.5885,-1.5881,-1.5864,-1.5845,-1.5835,-1.5832,-1.5821,-1.5825,-1.5827,-1.5829,-1.5835,-1.5789,-1.5829,-1.5829,-1.5829,-1.5829,-1.5828,0,-1.6032,-1.6019,-1.6012,-1.5997,-1.5992,-1.5973,-1.5959,-1.5956,-1.5953,-1.5939,-1.5931,-1.5924,-1.5917,-1.5896,-1.5887,-1.5889,-1.588,-1.5888,-1.5889,-1.5887,-1.5843,-1.5843,-1.5895,-1.5895,-1.5895,-1.5895,-1.5895,-1.5895,-1.6056,-1.6058,-1.6045,-1.6041,-1.6028,-1.6024,-1.6018,-1.6009,-1.5998,-1.5992,-1.5986,-1.5972,-1.5956,-1.5946,-1.5939,-1.5933,-1.5933,-1.5944,-1.5936,-1.5896,-1.589,-1.5884,-1.5883,-1.5943,-1.5943,-1.598,-1.598,-1.598]},{"header":{"parameterUnit":"m.s-1","parameterCategory":1,"la1":30.2991,"la2":30.254,"lo1":-89.0895,"lo2":-89.0444,"dy":0.0017,"dx":0.0017,"nx":28,"ny":28,"refTime":"2026-02-11T03:00:00:Z","depth":0,"parameterNumber":3,"parameterNumberName":"V-component_of_WINDS"},"data":[0,0,0,0,0,0,0,0,0,0,0,0,0,0,0,0,0,0,0,0,0,0,0,0,0,0,0,0,0,0,0,0,0,0,0,0,0,0,0,0,0,0,0,0,0,0,0,0,0,0,0,0,0,0,0,0,0,0,-0.6188,-0.6188,0,-0.6164,-0.6164,-0.6163,-0.6139,-0.6139,-0.6138,-0.6138,-0.6113,-0.6113,-0.6113,0,0,0,0,0,0,0,0,0,0,0,0,0,-0.6214,-0.6213,-0.6188,-0.6188,-0.6187,-0.6164,-0.6164,-0.6163,-0.6139,-0.6139,-0.6138,-0.6138,-0.6114,-0.6113,-0.6113,0,0,0,0,0,0,0,0,0,0,0,0,0,-0.6197,-0.6213,-0.6188,-0.6173,-0.6171,-0.6164,-0.6164,-0.6163,-0.6139,-0.6139,-0.6138,-0.6138,-0.6114,-0.6113,-0.6113,-0.6119,0,0,-0.6111,-0.6111,0,0,0,0,0,0,0,0,-0.6198,-0.6196,-0.6175,-0.6174,-0.6172,-0.6154,-0.6163,-0.6148,-0.6139,-0.6151,-0.6138,-0.6138,-0.6127,-0.6126,-0.6122,-0.6118,-0.6117,-0.6111,-0.6111,-0.611,-0.611,0,0,0,0,0,0,0,-0.6199,-0.6197,-0.6178,-0.6175,-0.6173,-0.6167,-0.6164,-0.6161,-0.6142,-0.615,-0.6148,-0.6146,-0.6126,-0.6123,-0.6121,-0.6116,-0.6111,-0.611,-0.611,-0.611,-0.6118,-0.6118,0,0,0,0,0,0,-0.6203,-0.6198,-0.6179,-0.6178,-0.6184,-0.6167,-0.6164,-0.616,-0.6142,-0.6139,-0.6146,-0.6145,-0.6124,-0.6122,-0.612,-0.6128,-0.611,-0.611,-0.611,-0.6117,-0.6118,-0.6119,0,0,0,0,0,0,-0.6204,-0.6201,-0.618,-0.6188,-0.6184,-0.6167,-0.6163,-0.616,-0.6156,-0.6139,-0.6136,-0.6146,-0.6123,-0.6121,-0.612,-0.6127,-0.611,-0.6109,-0.6117,-0.6118,-0.6118,-0.6143,0,0,0,0,0,0,-0.6204,-0.6202,-0.6204,-0.6188,-0.6184,-0.618,-0.6164,-0.616,-0.6156,-0.6153,-0.6138,-0.6135,-0.6123,-0.6121,-0.6119,-0.6126,-0.6109,-0.6116,-0.6117,-0.6118,-0.6141,-0.6144,-0.6147,0,0,0,0,0,-0.6205,-0.6211,-0.6204,-0.6202,-0.6186,-0.618,-0.6178,-0.6164,-0.6156,-0.6158,-0.6148,-0.6136,-0.6126,-0.6121,-0.6119,-0.6125,-0.6116,-0.6117,-0.6118,-0.614,-0.6144,-0.6147,0,0,0,0,0,0,-0.6228,-0.6209,-0.6201,-0.6201,-0.6193,-0.6176,-0.6178,-0.6168,-0.6161,-0.616,-0.6142,-0.6139,-0.614,-0.6132,-0.6127,-0.6131,-0.6119,-0.612,-0.6137,-0.614,-0.6143,-0.6145,-0.6108,0,0,0,0,0,-0.6233,-0.623,-0.6213,-0.6216,-0.6212,-0.6196,-0.6193,-0.6183,-0.6173,-0.6169,-0.6158,-0.6149,-0.6144,-0.6141,-0.6136,-0.614,-0.6137,-0.6143,-0.6146,-0.6148,-0.615,-0.6153,-0.6156,-0.6123,-0.6122,-0.6122,0,0,-0.6244,-0.6233,-0.6232,-0.622,-0.6212,-0.621,-0.6193,-0.6191,-0.6189,-0.6169,-0.6167,-0.6159,-0.6148,-0.615,-0.615,-0.6143,-0.6158,-0.615,-0.6152,-0.6152,-0.6154,-0.6157,-0.616,-0.6123,-0.6123,-0.6123,0,0,-0.6262,-0.6253,-0.6255,-0.6247,-0.6236,-0.6225,-0.6226,-0.6211,-0.6205,-0.6203,-0.6189,-0.6186,-0.6178,-0.6171,-0.6166,-0.6183,-0.6173,-0.6182,-0.6197,-0.62,-0.6203,-0.6205,-0.6212,-0.6215,-0.6183,-0.6183,-0.6183,0,-0.6277,-0.6272,-0.6257,-0.6256,-0.6252,-0.6234,-0.6236,-0.6229,-0.6216,-0.6214,-0.6207,-0.6197,-0.6188,-0.6189,-0.6193,-0.6189,-0.619,-0.6184,-0.6204,-0.6206,-0.6208,-0.6215,-0.6217,-0.6185,-0.6184,-0.6184,-0.6184,0,-0.6291,-0.6289,-0.6291,-0.628,-0.6276,-0.6277,-0.6262,-0.6259,-0.625,-0.6241,-0.624,-0.6229,-0.6221,-0.622,-0.6211,-0.622,-0.6217,-0.6207,-0.6194,-0.6212,-0.6219,-0.6221,-0.6186,-0.6186,-0.6186,-0.6185,0,0,-0.6323,-0.6304,-0.6306,-0.6301,-0.6287,-0.6285,-0.6285,-0.6278,-0.6277,-0.6269,-0.6269,-0.6263,-0.6254,-0.6249,-0.6239,-0.6241,-0.6257,-0.6231,-0.6231,-0.6238,-0.6269,-0.6277,-0.6281,-0.625,-0.625,-0.6251,-0.627,0,-0.634,-0.6339,-0.6326,-0.6329,-0.6327,-0.6311,-0.6311,-0.6303,-0.6294,-0.6291,-0.6282,-0.6278,-0.6266,-0.6263,-0.6265,-0.6255,-0.6264,-0.6253,-0.6251,-0.6251,-0.6256,-0.6284,-0.6292,-0.6311,-0.6273,-0.6273,-0.6273,0,-0.6359,-0.6353,-0.6357,-0.6344,-0.6343,-0.6343,-0.6337,-0.6334,-0.6325,-0.6319,-0.6314,-0.6302,-0.6302,-0.629,-0.629,-0.6283,-0.6281,-0.6277,-0.6277,-0.6277,-0.6264,-0.6286,-0.6317,-0.6321,-0.6277,-0.6276,-0.6276,0,-0.6384,-0.6376,-0.6378,-0.6374,-0.6359,-0.636,-0.6354,-0.6345,-0.6342,-0.6336,-0.6334,-0.6328,-0.6325,-0.6321,-0.6309,-0.6301,-0.6311,-0.6297,-0.6307,-0.6307,-0.6311,-0.6311,-0.6343,-0.6307,-0.6307,-0.6307,-0.6307,0,-0.6405,-0.6408,-0.6389,-0.639,-0.6393,-0.6378,-0.6382,-0.6374,-0.6366,-0.6366,-0.635,-0.635,-0.6333,-0.6332,-0.6322,-0.6324,-0.6323,-0.6318,-0.6316,-0.632,-0.6321,-0.632,-0.6319,-0.6308,-0.6308,-0.6308,-0.6308,0,-0.6433,-0.642,-0.6421,-0.6408,-0.6404,-0.6407,-0.6396,-0.6397,-0.6387,-0.6387,-0.6386,-0.6372,-0.6369,-0.6356,-0.635,-0.6343,-0.635,-0.6344,-0.6353,-0.6352,-0.6363,-0.6363,-0.6397,-0.6401,-0.6361,-0.6362,-0.6362,0,-0.6448,-0.645,-0.6437,-0.6436,-0.643,-0.6429,-0.6426,-0.6411,-0.6409,-0.64,-0.6402,-0.6398,-0.6395,-0.6391,-0.6381,-0.6376,-0.6371,-0.6383,-0.637,-0.6376,-0.6373,-0.6374,-0.6375,-0.6387,-0.6387,-0.6387,-0.6388,0,-0.6476,-0.647,-0.6466,-0.6462,-0.6459,-0.6454,-0.6449,-0.6449,-0.6432,-0.6431,-0.6428,-0.6426,-0.642,-0.6417,-0.6411,-0.6405,-0.6395,-0.6392,-0.6394,-0.6399,-0.6405,-0.6404,-0.6363,-0.6391,-0.6391,-0.6391,-0.6391,-0.639,-0.6498,-0.65,-0.6492,-0.6489,-0.6483,-0.6479,-0.6479,-0.6471,-0.6468,-0.6463,-0.6454,-0.6453,-0.6446,-0.6437,-0.6432,-0.6431,-0.6425,-0.6428,-0.6429,-0.643,-0.6433,-0.6404,-0.643,-0.643,-0.643,-0.643,-0.643,0,-0.6527,-0.6521,-0.6518,-0.6512,-0.651,-0.65,-0.6493,-0.6493,-0.6492,-0.6486,-0.6483,-0.6481,-0.6478,-0.6467,-0.6464,-0.6465,-0.646,-0.6465,-0.6465,-0.6465,-0.6438,-0.6437,-0.6469,-0.6469,-0.6469,-0.6469,-0.6469,-0.6469,-0.6541,-0.6544,-0.6538,-0.6538,-0.6532,-0.6531,-0.6529,-0.6525,-0.652,-0.6518,-0.6516,-0.6509,-0.6502,-0.6497,-0.6495,-0.6492,-0.6492,-0.6499,-0.6494,-0.647,-0.6466,-0.6463,-0.6462,-0.6498,-0.6499,-0.6521,-0.6521,-0.6521]}]]